Time,TemperatureF,DewpointF,PressureIn,WindDirection,WindDirectionDegrees,WindSpeedMPH,WindSpeedGustMPH,Humidity,HourlyPrecipIn,Conditions,Clouds,dailyrainin,SoftwareType,DateUTC
2013-06-20 00:01:00,80.0,71.7,29.96,ESE,121,1.0,2.0,76,0.00,,,0.00,WeatherCatV1.15B25,2013-06-20 05:01:00,
2013-06-20 00:06:00,79.9,72.0,29.96,SE,128,1.0,2.0,77,0.00,,,0.00,WeatherCatV1.15B25,2013-06-20 05:06:00,
2013-06-20 00:11:00,79.7,72.2,29.96,SE,126,0.0,1.0,78,0.00,,,0.00,WeatherCatV1.15B25,2013-06-20 05:11:00,
2013-06-20 00:16:00,79.5,72.4,29.95,SE,139,0.0,1.0,79,0.00,,,0.00,WeatherCatV1.15B25,2013-06-20 05:16:00,
2013-06-20 00:21:00,79.4,72.3,29.95,SE,138,0.0,1.0,79,0.00,,,0.00,WeatherCatV1.15B25,2013-06-20 05:21:00,
2013-06-20 00:26:00,79.2,72.5,29.95,SE,138,1.0,1.0,80,0.00,,,0.00,WeatherCatV1.15B25,2013-06-20 05:26:00,
2013-06-20 00:31:00,79.0,72.3,29.94,SE,140,0.0,1.0,80,0.00,,,0.00,WeatherCatV1.15B25,2013-06-20 05:31:00,
2013-06-20 00:36:00,78.8,72.5,29.94,South,184,0.0,1.0,81,0.00,,,0.00,WeatherCatV1.15B25,2013-06-20 05:36:00,
2013-06-20 00:42:00,78.7,72.7,29.94,SSW,198,0.0,1.0,82,0.00,,,0.00,WeatherCatV1.15B25,2013-06-20 05:42:00,
2013-06-20 00:47:00,78.5,72.5,29.93,SW,219,0.0,2.0,82,0.00,,,0.00,WeatherCatV1.15B25,2013-06-20 05:47:00,
2013-06-20 00:52:00,78.4,72.4,29.93,SSE,163,1.0,2.0,82,0.00,,,0.00,WeatherCatV1.15B25,2013-06-20 05:52:00,
2013-06-20 00:57:00,78.2,72.6,29.93,WSW,239,1.0,2.0,83,0.00,,,0.00,WeatherCatV1.15B25,2013-06-20 05:57:00,
2013-06-20 01:02:00,78.1,72.5,29.93,WSW,238,1.0,2.0,83,0.00,,,0.00,WeatherCatV1.15B25,2013-06-20 06:02:00,
2013-06-20 01:07:00,77.9,72.7,29.93,ESE,121,1.0,5.0,84,0.00,,,0.00,WeatherCatV1.15B25,2013-06-20 06:07:00,
2013-06-20 01:12:00,77.8,72.6,29.93,SE,131,0.0,1.0,84,0.00,,,0.00,WeatherCatV1.15B25,2013-06-20 06:12:00,
2013-06-20 01:17:00,77.6,72.4,29.93,SE,131,0.0,0.0,84,0.00,,,0.00,WeatherCatV1.15B25,2013-06-20 06:17:00,
2013-06-20 01:22:00,77.5,72.6,29.93,SW,215,0.0,1.0,85,0.00,,,0.00,WeatherCatV1.15B25,2013-06-20 06:22:00,
2013-06-20 01:27:00,77.3,72.4,29.93,SW,215,0.0,1.0,85,0.00,,,0.00,WeatherCatV1.15B25,2013-06-20 06:27:00,
2013-06-20 01:32:00,77.1,72.2,29.94,SW,215,0.0,0.0,85,0.00,,,0.00,WeatherCatV1.15B25,2013-06-20 06:32:00,
2013-06-20 01:37:00,77.0,72.1,29.93,SW,215,0.0,0.0,85,0.00,,,0.00,WeatherCatV1.15B25,2013-06-20 06:37:00,
2013-06-20 01:42:00,76.8,72.3,29.93,SE,134,0.0,0.0,86,0.00,,,0.00,WeatherCatV1.15B25,2013-06-20 06:42:00,
2013-06-20 01:47:00,76.7,72.2,29.92,SE,134,0.0,0.0,86,0.00,,,0.00,WeatherCatV1.15B25,2013-06-20 06:47:00,
2013-06-20 01:52:00,76.5,72.3,29.92,SSE,147,0.0,1.0,87,0.00,,,0.00,WeatherCatV1.15B25,2013-06-20 06:52:00,
2013-06-20 01:57:00,76.4,72.2,29.92,SSE,147,0.0,0.0,87,0.00,,,0.00,WeatherCatV1.15B25,2013-06-20 06:57:00,
2013-06-20 02:02:00,76.3,72.1,29.92,SSE,147,0.0,0.0,87,0.00,,,0.00,WeatherCatV1.15B25,2013-06-20 07:02:00,
2013-06-20 02:07:00,76.2,72.0,29.92,SSE,147,0.0,0.0,87,0.00,,,0.00,WeatherCatV1.15B25,2013-06-20 07:07:00,
2013-06-20 02:12:00,76.1,71.9,29.92,SSE,147,0.0,1.0,87,0.00,,,0.00,WeatherCatV1.15B25,2013-06-20 07:12:00,
2013-06-20 02:17:00,76.0,72.2,29.92,SSE,147,0.0,0.0,88,0.00,,,0.00,WeatherCatV1.15B25,2013-06-20 07:17:00,
2013-06-20 02:22:00,75.9,72.1,29.92,SSE,147,0.0,0.0,88,0.00,,,0.00,WeatherCatV1.15B25,2013-06-20 07:22:00,
2013-06-20 02:27:00,75.8,72.0,29.92,SSE,147,0.0,0.0,88,0.00,,,0.00,WeatherCatV1.15B25,2013-06-20 07:27:00,
2013-06-20 02:32:00,75.7,71.9,29.92,SSE,147,0.0,0.0,88,0.00,,,0.00,WeatherCatV1.15B25,2013-06-20 07:32:00,
2013-06-20 02:37:00,75.6,72.1,29.92,SSE,147,0.0,0.0,89,0.00,,,0.00,WeatherCatV1.15B25,2013-06-20 07:37:00,
2013-06-20 02:42:00,75.4,71.9,29.92,SSE,147,0.0,0.0,89,0.00,,,0.00,WeatherCatV1.15B25,2013-06-20 07:42:00,
2013-06-20 02:47:00,75.3,71.8,29.92,SSE,147,0.0,0.0,89,0.00,,,0.00,WeatherCatV1.15B25,2013-06-20 07:47:00,
2013-06-20 02:52:00,75.2,71.7,29.92,SSE,147,0.0,0.0,89,0.00,,,0.00,WeatherCatV1.15B25,2013-06-20 07:52:00,
2013-06-20 02:57:00,75.0,71.9,29.92,SSE,147,0.0,0.0,90,0.00,,,0.00,WeatherCatV1.15B25,2013-06-20 07:57:00,
2013-06-20 03:02:00,74.8,71.7,29.92,SSE,147,0.0,0.0,90,0.00,,,0.00,WeatherCatV1.15B25,2013-06-20 08:02:00,
2013-06-20 03:07:00,74.7,71.6,29.91,SSE,147,0.0,0.0,90,0.00,,,0.00,WeatherCatV1.15B25,2013-06-20 08:07:00,
2013-06-20 03:13:00,74.7,71.9,29.91,SSE,147,0.0,0.0,91,0.00,,,0.00,WeatherCatV1.15B25,2013-06-20 08:13:00,
2013-06-20 03:18:00,74.7,71.9,29.91,SSE,147,0.0,0.0,91,0.00,,,0.00,WeatherCatV1.15B25,2013-06-20 08:18:00,
2013-06-20 03:23:00,74.7,71.9,29.91,SSE,147,0.0,0.0,91,0.00,,,0.00,WeatherCatV1.15B25,2013-06-20 08:23:00,
2013-06-20 03:28:00,74.6,71.8,29.91,SSE,147,0.0,0.0,91,0.00,,,0.00,WeatherCatV1.15B25,2013-06-20 08:28:00,
2013-06-20 03:33:00,74.6,71.8,29.92,SSE,147,0.0,0.0,91,0.00,,,0.00,WeatherCatV1.15B25,2013-06-20 08:33:00,
2013-06-20 03:38:00,74.5,71.7,29.92,SSE,147,0.0,0.0,91,0.00,,,0.00,WeatherCatV1.15B25,2013-06-20 08:38:00,
2013-06-20 03:43:00,74.4,71.6,29.92,SSE,147,0.0,0.0,91,0.00,,,0.00,WeatherCatV1.15B25,2013-06-20 08:43:00,
2013-06-20 03:48:00,74.2,71.7,29.92,SSE,147,0.0,0.0,92,0.00,,,0.00,WeatherCatV1.15B25,2013-06-20 08:48:00,
2013-06-20 03:53:00,74.1,71.6,29.92,SSE,147,0.0,0.0,92,0.00,,,0.00,WeatherCatV1.15B25,2013-06-20 08:53:00,
2013-06-20 03:58:00,74.0,71.5,29.91,SSE,147,0.0,0.0,92,0.00,,,0.00,WeatherCatV1.15B25,2013-06-20 08:58:00,
2013-06-20 04:03:00,73.9,71.4,29.92,SSE,147,0.0,0.0,92,0.00,,,0.00,WeatherCatV1.15B25,2013-06-20 09:03:00,
2013-06-20 04:08:00,73.8,71.3,29.92,SSE,147,0.0,0.0,92,0.00,,,0.00,WeatherCatV1.15B25,2013-06-20 09:08:00,
2013-06-20 04:13:00,73.7,71.5,29.92,SSE,147,0.0,0.0,93,0.00,,,0.00,WeatherCatV1.15B25,2013-06-20 09:13:00,
2013-06-20 04:18:00,73.7,71.5,29.92,SSE,147,0.0,0.0,93,0.00,,,0.00,WeatherCatV1.15B25,2013-06-20 09:18:00,
2013-06-20 04:23:00,73.8,71.6,29.92,SSE,147,0.0,0.0,93,0.00,,,0.00,WeatherCatV1.15B25,2013-06-20 09:23:00,
2013-06-20 04:29:00,73.8,72.0,29.92,SSE,147,0.0,0.0,94,0.00,,,0.00,WeatherCatV1.15B25,2013-06-20 09:29:00,
2013-06-20 04:34:00,73.9,72.1,29.92,SSE,147,0.0,0.0,94,0.00,,,0.00,WeatherCatV1.15B25,2013-06-20 09:34:00,
2013-06-20 04:39:00,73.9,72.1,29.92,SSE,147,0.0,1.0,94,0.00,,,0.00,WeatherCatV1.15B25,2013-06-20 09:39:00,
2013-06-20 04:44:00,74.1,72.3,29.92,SSE,147,0.0,0.0,94,0.00,,,0.00,WeatherCatV1.15B25,2013-06-20 09:44:00,
2013-06-20 04:49:00,74.2,72.4,29.92,South,173,0.0,1.0,94,0.00,,,0.00,WeatherCatV1.15B25,2013-06-20 09:49:00,
2013-06-20 04:54:00,74.3,72.1,29.92,South,173,0.0,2.0,93,0.00,,,0.00,WeatherCatV1.15B25,2013-06-20 09:54:00,
2013-06-20 04:59:00,74.4,72.2,29.92,South,173,1.0,1.0,93,0.00,,,0.00,WeatherCatV1.15B25,2013-06-20 09:59:00,
2013-06-20 05:04:00,74.5,72.3,29.92,SSE,148,0.0,1.0,93,0.00,,,0.00,WeatherCatV1.15B25,2013-06-20 10:04:00,
2013-06-20 05:09:00,74.6,72.4,29.93,SSE,148,0.0,0.0,93,0.00,,,0.00,WeatherCatV1.15B25,2013-06-20 10:09:00,
2013-06-20 05:14:00,74.7,72.2,29.93,SSE,148,0.0,0.0,92,0.00,,,0.00,WeatherCatV1.15B25,2013-06-20 10:14:00,
2013-06-20 05:19:00,74.7,72.2,29.93,SSE,148,0.0,0.0,92,0.00,,,0.00,WeatherCatV1.15B25,2013-06-20 10:19:00,
2013-06-20 05:24:00,74.7,72.2,29.92,SSE,148,0.0,0.0,92,0.00,,,0.00,WeatherCatV1.15B25,2013-06-20 10:24:00,
2013-06-20 05:29:00,74.8,72.3,29.93,SSE,147,0.0,2.0,92,0.00,,,0.00,WeatherCatV1.15B25,2013-06-20 10:29:00,
2013-06-20 05:34:00,74.8,72.3,29.93,SSE,147,0.0,0.0,92,0.00,,,0.00,WeatherCatV1.15B25,2013-06-20 10:34:00,
2013-06-20 05:39:00,74.8,72.3,29.93,SSE,147,0.0,0.0,92,0.00,,,0.00,WeatherCatV1.15B25,2013-06-20 10:39:00,
2013-06-20 05:44:00,74.8,72.3,29.92,SSE,147,0.0,1.0,92,0.00,,,0.00,WeatherCatV1.15B25,2013-06-20 10:44:00,
2013-06-20 05:49:00,74.9,72.4,29.93,SSE,147,0.0,0.0,92,0.00,,,0.00,WeatherCatV1.15B25,2013-06-20 10:49:00,
2013-06-20 05:54:00,74.9,72.7,29.93,SSE,147,0.0,0.0,93,0.00,,,0.00,WeatherCatV1.15B25,2013-06-20 10:54:00,
2013-06-20 05:59:00,74.9,72.4,29.94,South,169,0.0,1.0,92,0.00,,,0.00,WeatherCatV1.15B25,2013-06-20 10:59:00,
2013-06-20 06:04:00,75.0,72.5,29.94,South,176,0.0,1.0,92,0.00,,,0.00,WeatherCatV1.15B25,2013-06-20 11:04:00,
2013-06-20 06:09:00,75.0,72.5,29.94,South,176,0.0,1.0,92,0.00,,,0.00,WeatherCatV1.15B25,2013-06-20 11:09:00,
2013-06-20 06:14:00,75.0,72.5,29.94,South,176,0.0,0.0,92,0.00,,,0.00,WeatherCatV1.15B25,2013-06-20 11:14:00,
2013-06-20 06:19:00,75.0,72.5,29.95,South,176,0.0,0.0,92,0.00,,,0.00,WeatherCatV1.15B25,2013-06-20 11:19:00,
2013-06-20 06:24:00,75.0,72.5,29.95,South,176,0.0,0.0,92,0.00,,,0.00,WeatherCatV1.15B25,2013-06-20 11:24:00,
2013-06-20 06:29:00,75.1,72.9,29.95,South,176,0.0,1.0,93,0.00,,,0.00,WeatherCatV1.15B25,2013-06-20 11:29:00,
2013-06-20 06:34:00,75.1,72.6,29.95,SSE,153,0.0,1.0,92,0.00,,,0.00,WeatherCatV1.15B25,2013-06-20 11:34:00,
2013-06-20 06:39:00,75.1,72.6,29.95,SSE,153,0.0,0.0,92,0.00,,,0.00,WeatherCatV1.15B25,2013-06-20 11:39:00,
2013-06-20 06:44:00,75.1,72.6,29.96,SSE,153,0.0,0.0,92,0.00,,,0.00,WeatherCatV1.15B25,2013-06-20 11:44:00,
2013-06-20 06:49:00,75.2,72.7,29.96,SSE,153,0.0,1.0,92,0.00,,,0.00,WeatherCatV1.15B25,2013-06-20 11:49:00,
2013-06-20 06:54:00,75.2,72.7,29.96,SSE,158,0.0,0.0,92,0.00,,,0.00,WeatherCatV1.15B25,2013-06-20 11:54:00,
2013-06-20 07:00:00,75.2,72.7,29.96,SSE,163,0.0,0.0,92,0.00,,,0.00,WeatherCatV1.15B25,2013-06-20 12:00:00,
2013-06-20 07:05:00,75.3,72.8,29.96,SSE,163,0.0,0.0,92,0.00,,,0.00,WeatherCatV1.15B25,2013-06-20 12:05:00,
2013-06-20 07:10:00,75.3,72.8,29.97,SSE,163,0.0,0.0,92,0.00,,,0.00,WeatherCatV1.15B25,2013-06-20 12:10:00,
2013-06-20 07:15:00,75.4,72.9,29.97,SSE,163,0.0,0.0,92,0.00,,,0.00,WeatherCatV1.15B25,2013-06-20 12:15:00,
2013-06-20 07:20:00,75.5,73.0,29.96,SSE,163,0.0,0.0,92,0.00,,,0.00,WeatherCatV1.15B25,2013-06-20 12:20:00,
2013-06-20 07:25:00,75.5,73.0,29.96,SSE,163,0.0,0.0,92,0.00,,,0.00,WeatherCatV1.15B25,2013-06-20 12:25:00,
2013-06-20 07:30:00,75.7,73.2,29.97,SSE,163,0.0,0.0,92,0.00,,,0.00,WeatherCatV1.15B25,2013-06-20 12:30:00,
2013-06-20 07:35:00,75.8,73.3,29.97,SSE,163,0.0,2.0,92,0.00,,,0.00,WeatherCatV1.15B25,2013-06-20 12:35:00,
2013-06-20 07:40:00,75.9,73.4,29.97,SSW,200,0.0,1.0,92,0.00,,,0.00,WeatherCatV1.15B25,2013-06-20 12:40:00,
2013-06-20 07:45:00,76.1,73.6,29.97,SSW,200,0.0,1.0,92,0.00,,,0.00,WeatherCatV1.15B25,2013-06-20 12:45:00,
2013-06-20 07:50:00,76.2,73.4,29.97,SSW,200,0.0,0.0,91,0.00,,,0.00,WeatherCatV1.15B25,2013-06-20 12:50:00,
2013-06-20 07:55:00,76.5,73.7,29.97,SSW,200,0.0,1.0,91,0.00,,,0.00,WeatherCatV1.15B25,2013-06-20 12:55:00,
2013-06-20 08:00:00,76.8,74.0,29.97,SSW,200,0.0,0.0,91,0.00,,,0.00,WeatherCatV1.15B25,2013-06-20 13:00:00,
2013-06-20 08:05:00,77.2,74.0,29.97,SSW,210,0.0,2.0,90,0.00,,,0.00,WeatherCatV1.15B25,2013-06-20 13:05:00,
2013-06-20 08:10:00,77.5,74.0,29.97,SSW,210,0.0,1.0,89,0.00,,,0.00,WeatherCatV1.15B25,2013-06-20 13:10:00,
2013-06-20 08:15:00,77.8,73.9,29.97,SSW,198,0.0,2.0,88,0.00,,,0.00,WeatherCatV1.15B25,2013-06-20 13:15:00,
2013-06-20 08:20:00,78.1,74.2,29.97,South,182,1.0,5.0,88,0.00,,,0.00,WeatherCatV1.15B25,2013-06-20 13:20:00,
2013-06-20 08:25:00,78.2,74.0,29.98,SSE,160,1.0,3.0,87,0.00,,,0.00,WeatherCatV1.15B25,2013-06-20 13:25:00,
2013-06-20 08:30:00,78.1,73.9,29.98,SW,215,3.0,4.0,87,0.00,,,0.00,WeatherCatV1.15B25,2013-06-20 13:30:00,
2013-06-20 08:35:00,78.1,73.9,29.98,South,191,0.0,4.0,87,0.00,,,0.00,WeatherCatV1.15B25,2013-06-20 13:35:00,
2013-06-20 08:40:00,78.4,74.2,29.99,South,177,0.0,0.0,87,0.00,,,0.00,WeatherCatV1.15B25,2013-06-20 13:40:00,
2013-06-20 08:45:00,78.6,74.4,29.99,SW,228,0.0,3.0,87,0.00,,,0.00,WeatherCatV1.15B25,2013-06-20 13:45:00,
2013-06-20 08:50:00,78.9,74.3,29.99,SE,135,4.0,4.0,86,0.00,,,0.00,WeatherCatV1.15B25,2013-06-20 13:50:00,
2013-06-20 08:55:00,79.1,74.2,29.99,South,189,0.0,1.0,85,0.00,,,0.00,WeatherCatV1.15B25,2013-06-20 13:55:00,
2013-06-20 09:00:00,79.4,74.1,29.99,SSW,196,0.0,3.0,84,0.00,,,0.00,WeatherCatV1.15B25,2013-06-20 14:00:00,
2013-06-20 09:05:00,79.8,74.2,30.00,South,187,2.0,4.0,83,0.00,,,0.00,WeatherCatV1.15B25,2013-06-20 14:05:00,
2013-06-20 09:10:00,80.1,74.1,30.00,WNW,294,0.0,2.0,82,0.00,,,0.00,WeatherCatV1.15B25,2013-06-20 14:10:00,
2013-06-20 09:15:00,80.3,74.3,30.00,SSE,156,0.0,4.0,82,0.00,,,0.00,WeatherCatV1.15B25,2013-06-20 14:15:00,
2013-06-20 09:20:00,80.6,74.2,30.00,SE,128,0.0,6.0,81,0.00,,,0.00,WeatherCatV1.15B25,2013-06-20 14:20:00,
2013-06-20 09:25:00,80.9,74.1,30.00,SE,134,4.0,7.0,80,0.00,,,0.00,WeatherCatV1.15B25,2013-06-20 14:25:00,
2013-06-20 09:31:00,81.2,74.4,30.00,WSW,242,0.0,4.0,80,0.00,,,0.00,WeatherCatV1.15B25,2013-06-20 14:31:00,
2013-06-20 09:36:00,81.5,74.0,30.01,SSE,156,0.0,4.0,78,0.00,,,0.00,WeatherCatV1.15B25,2013-06-20 14:36:00,
2013-06-20 09:41:00,81.6,74.1,30.01,SE,145,2.0,4.0,78,0.00,,,0.00,WeatherCatV1.15B25,2013-06-20 14:41:00,
2013-06-20 09:46:00,82.0,74.4,30.01,SE,140,1.0,3.0,78,0.00,,,0.00,WeatherCatV1.15B25,2013-06-20 14:46:00,
2013-06-20 09:51:00,82.3,74.3,30.01,SW,232,0.0,1.0,77,0.00,,,0.00,WeatherCatV1.15B25,2013-06-20 14:51:00,
2013-06-20 09:56:00,82.5,74.1,30.01,South,186,1.0,2.0,76,0.00,,,0.00,WeatherCatV1.15B25,2013-06-20 14:56:00,
2013-06-20 10:01:00,82.3,74.0,30.01,SW,216,1.0,3.0,76,0.00,,,0.00,WeatherCatV1.15B25,2013-06-20 15:01:00,
2013-06-20 10:06:00,82.7,74.3,30.01,NW,312,0.0,4.0,76,0.00,,,0.00,WeatherCatV1.15B25,2013-06-20 15:06:00,
2013-06-20 10:11:00,83.4,73.8,30.01,SW,217,2.0,5.0,73,0.00,,,0.00,WeatherCatV1.15B25,2013-06-20 15:11:00,
2013-06-20 10:16:00,83.5,74.3,30.01,South,184,4.0,5.0,74,0.00,,,0.00,WeatherCatV1.15B25,2013-06-20 15:16:00,
2013-06-20 10:21:00,83.6,73.6,30.01,South,188,2.0,6.0,72,0.00,,,0.00,WeatherCatV1.15B25,2013-06-20 15:21:00,
2013-06-20 10:26:00,83.7,73.3,30.01,South,172,0.0,6.0,71,0.00,,,0.00,WeatherCatV1.15B25,2013-06-20 15:26:00,
2013-06-20 10:31:00,83.7,73.3,30.01,SW,215,0.0,6.0,71,0.00,,,0.00,WeatherCatV1.15B25,2013-06-20 15:31:00,
2013-06-20 10:36:00,83.9,73.5,30.01,SSW,211,1.0,3.0,71,0.00,,,0.00,WeatherCatV1.15B25,2013-06-20 15:36:00,
2013-06-20 10:41:00,84.3,73.8,30.00,SSW,195,1.0,2.0,71,0.00,,,0.00,WeatherCatV1.15B25,2013-06-20 15:41:00,
2013-06-20 10:46:00,84.8,73.9,30.01,South,170,2.0,4.0,70,0.00,,,0.00,WeatherCatV1.15B25,2013-06-20 15:46:00,
2013-06-20 10:51:00,84.8,73.5,30.01,East,90,0.0,6.0,69,0.00,,,0.00,WeatherCatV1.15B25,2013-06-20 15:51:00,
2013-06-20 10:56:00,85.1,74.2,30.01,SSW,203,1.0,4.0,70,0.00,,,0.00,WeatherCatV1.15B25,2013-06-20 15:56:00,
2013-06-20 11:01:00,85.4,74.0,30.01,SSW,194,0.0,6.0,69,0.00,,,0.00,WeatherCatV1.15B25,2013-06-20 16:01:00,
2013-06-20 11:06:00,86.1,74.7,30.01,SE,132,1.0,2.0,69,0.00,,,0.00,WeatherCatV1.15B25,2013-06-20 16:06:00,
2013-06-20 11:11:00,86.4,74.1,30.01,South,186,2.0,4.0,67,0.00,,,0.00,WeatherCatV1.15B25,2013-06-20 16:11:00,
2013-06-20 11:16:00,86.6,74.3,30.01,SSW,201,0.0,3.0,67,0.00,,,0.00,WeatherCatV1.15B25,2013-06-20 16:16:00,
2013-06-20 11:21:00,86.9,74.1,30.01,SSE,153,1.0,2.0,66,0.00,,,0.00,WeatherCatV1.15B25,2013-06-20 16:21:00,
2013-06-20 11:26:00,87.4,73.7,30.01,SSW,199,1.0,4.0,64,0.00,,,0.00,WeatherCatV1.15B25,2013-06-20 16:26:00,
2013-06-20 11:31:00,87.4,73.7,30.01,North,349,1.0,1.0,64,0.00,,,0.00,WeatherCatV1.15B25,2013-06-20 16:31:00,
2013-06-20 11:36:00,87.1,73.4,30.00,South,173,2.0,6.0,64,0.00,,,0.00,WeatherCatV1.15B25,2013-06-20 16:36:00,
2013-06-20 11:41:00,87.2,73.5,30.01,WSW,244,2.0,7.0,64,0.00,,,0.00,WeatherCatV1.15B25,2013-06-20 16:41:00,
2013-06-20 11:46:00,86.8,73.1,30.00,SSE,148,1.0,5.0,64,0.00,,,0.00,WeatherCatV1.15B25,2013-06-20 16:46:00,
2013-06-20 11:51:00,86.8,73.1,30.01,South,186,0.0,1.0,64,0.00,,,0.00,WeatherCatV1.15B25,2013-06-20 16:51:00,
2013-06-20 11:56:00,86.7,72.6,30.00,SSW,208,1.0,4.0,63,0.00,,,0.00,WeatherCatV1.15B25,2013-06-20 16:56:00,
2013-06-20 12:02:00,86.8,72.2,30.01,South,171,0.0,5.0,62,0.00,,,0.00,WeatherCatV1.15B25,2013-06-20 17:02:00,
2013-06-20 12:07:00,86.6,72.0,30.01,SSE,158,0.0,3.0,62,0.00,,,0.00,WeatherCatV1.15B25,2013-06-20 17:07:00,
2013-06-20 12:12:00,86.7,72.6,30.01,SSE,168,1.0,4.0,63,0.00,,,0.00,WeatherCatV1.15B25,2013-06-20 17:12:00,
2013-06-20 12:17:00,86.5,71.9,30.01,NE,54,1.0,5.0,62,0.00,,,0.00,WeatherCatV1.15B25,2013-06-20 17:17:00,
2013-06-20 12:22:00,87.0,73.3,30.00,South,171,0.0,2.0,64,0.00,,,0.00,WeatherCatV1.15B25,2013-06-20 17:22:00,
2013-06-20 12:27:00,87.4,72.3,30.00,ESE,120,0.0,7.0,61,0.00,,,0.00,WeatherCatV1.15B25,2013-06-20 17:27:00,
2013-06-20 12:32:00,88.1,72.4,30.00,SSW,192,2.0,5.0,60,0.00,,,0.00,WeatherCatV1.15B25,2013-06-20 17:32:00,
2013-06-20 12:37:00,88.8,72.6,30.00,East,92,1.0,4.0,59,0.00,,,0.00,WeatherCatV1.15B25,2013-06-20 17:37:00,
2013-06-20 12:42:00,88.8,71.6,30.00,SSW,192,2.0,3.0,57,0.00,,,0.00,WeatherCatV1.15B25,2013-06-20 17:42:00,
2013-06-20 12:47:00,89.1,72.4,30.00,SE,142,2.0,7.0,58,0.00,,,0.00,WeatherCatV1.15B25,2013-06-20 17:47:00,
2013-06-20 12:52:00,89.7,71.3,30.00,SSE,165,1.0,5.0,55,0.00,,,0.00,WeatherCatV1.15B25,2013-06-20 17:52:00,
2013-06-20 12:57:00,90.1,71.7,30.00,ESE,119,1.0,6.0,55,0.00,,,0.00,WeatherCatV1.15B25,2013-06-20 17:57:00,
2013-06-20 13:02:00,90.1,71.7,30.00,SE,139,1.0,5.0,55,0.00,,,0.00,WeatherCatV1.15B25,2013-06-20 18:02:00,
2013-06-20 13:07:00,90.5,72.1,30.00,ESE,117,0.0,8.0,55,0.00,,,0.00,WeatherCatV1.15B25,2013-06-20 18:07:00,
2013-06-20 13:12:00,90.8,71.8,29.99,SSE,165,1.0,9.0,54,0.00,,,0.00,WeatherCatV1.15B25,2013-06-20 18:12:00,
2013-06-20 13:17:00,91.1,72.1,29.99,SSW,202,3.0,3.0,54,0.00,,,0.00,WeatherCatV1.15B25,2013-06-20 18:17:00,
2013-06-20 13:22:00,91.3,71.7,29.99,SSW,192,2.0,5.0,53,0.00,,,0.00,WeatherCatV1.15B25,2013-06-20 18:22:00,
2013-06-20 13:27:00,91.2,72.2,29.99,SE,133,1.0,6.0,54,0.00,,,0.00,WeatherCatV1.15B25,2013-06-20 18:27:00,
2013-06-20 13:32:00,91.4,71.8,29.99,SSE,163,0.0,2.0,53,0.00,,,0.00,WeatherCatV1.15B25,2013-06-20 18:32:00,
2013-06-20 13:37:00,92.2,72.6,29.99,East,91,2.0,4.0,53,0.00,,,0.00,WeatherCatV1.15B25,2013-06-20 18:37:00,
2013-06-20 13:42:00,92.8,72.5,29.99,South,187,1.0,6.0,52,0.00,,,0.00,WeatherCatV1.15B25,2013-06-20 18:42:00,
2013-06-20 13:47:00,92.9,72.1,29.99,South,175,0.0,7.0,51,0.00,,,0.00,WeatherCatV1.15B25,2013-06-20 18:47:00,
2013-06-20 13:52:00,93.3,73.0,29.98,ENE,71,0.0,2.0,52,0.00,,,0.00,WeatherCatV1.15B25,2013-06-20 18:52:00,
2013-06-20 13:57:00,93.7,72.2,29.98,East,92,1.0,4.0,50,0.00,,,0.00,WeatherCatV1.15B25,2013-06-20 18:57:00,
2013-06-20 14:02:00,93.3,71.2,29.98,SW,235,2.0,5.0,49,0.00,,,0.00,WeatherCatV1.15B25,2013-06-20 19:02:00,
2013-06-20 14:07:00,92.7,71.3,29.98,SSW,205,1.0,5.0,50,0.00,,,0.00,WeatherCatV1.15B25,2013-06-20 19:07:00,
2013-06-20 14:12:00,93.0,70.4,29.98,East,80,0.0,5.0,48,0.00,,,0.00,WeatherCatV1.15B25,2013-06-20 19:12:00,
2013-06-20 14:17:00,93.4,71.9,29.97,East,91,6.0,6.0,50,0.00,,,0.00,WeatherCatV1.15B25,2013-06-20 19:17:00,
2013-06-20 14:22:00,93.7,70.4,29.96,WSW,255,4.0,4.0,47,0.00,,,0.00,WeatherCatV1.15B25,2013-06-20 19:22:00,
2013-06-20 14:28:00,93.8,69.8,29.97,South,178,1.0,7.0,46,0.00,,,0.00,WeatherCatV1.15B25,2013-06-20 19:28:00,
2013-06-20 14:33:00,94.0,71.3,29.96,SSE,150,1.0,4.0,48,0.00,,,0.00,WeatherCatV1.15B25,2013-06-20 19:33:00,
2013-06-20 14:38:00,94.0,71.9,29.96,SSE,162,1.0,2.0,49,0.00,,,0.00,WeatherCatV1.15B25,2013-06-20 19:38:00,
2013-06-20 14:43:00,94.1,72.0,29.96,ENE,68,1.0,2.0,49,0.00,,,0.00,WeatherCatV1.15B25,2013-06-20 19:43:00,
2013-06-20 14:48:00,94.4,71.0,29.96,ENE,76,2.0,5.0,47,0.00,,,0.00,WeatherCatV1.15B25,2013-06-20 19:48:00,
2013-06-20 14:53:00,94.5,70.5,29.95,SE,130,4.0,6.0,46,0.00,,,0.00,WeatherCatV1.15B25,2013-06-20 19:53:00,
2013-06-20 14:58:00,94.9,71.5,29.95,SSW,201,1.0,6.0,47,0.00,,,0.00,WeatherCatV1.15B25,2013-06-20 19:58:00,
2013-06-20 15:03:00,95.4,71.9,29.95,South,173,0.0,2.0,47,0.00,,,0.00,WeatherCatV1.15B25,2013-06-20 20:03:00,
2013-06-20 15:08:00,95.8,71.6,29.95,NNE,29,1.0,2.0,46,0.00,,,0.00,WeatherCatV1.15B25,2013-06-20 20:08:00,
2013-06-20 15:13:00,95.8,71.6,29.95,South,170,2.0,4.0,46,0.00,,,0.00,WeatherCatV1.15B25,2013-06-20 20:13:00,
2013-06-20 15:18:00,95.5,71.4,29.95,South,169,1.0,2.0,46,0.00,,,0.00,WeatherCatV1.15B25,2013-06-20 20:18:00,
2013-06-20 15:23:00,95.2,70.5,29.94,SSE,156,1.0,6.0,45,0.00,,,0.00,WeatherCatV1.15B25,2013-06-20 20:23:00,
2013-06-20 15:28:00,94.7,71.3,29.95,SSE,148,1.0,6.0,47,0.00,,,0.00,WeatherCatV1.15B25,2013-06-20 20:28:00,
2013-06-20 15:33:00,94.8,72.0,29.94,ENE,71,1.0,2.0,48,0.00,,,0.00,WeatherCatV1.15B25,2013-06-20 20:33:00,
2013-06-20 15:38:00,95.1,71.0,29.94,SSE,163,2.0,2.0,46,0.00,,,0.00,WeatherCatV1.15B25,2013-06-20 20:38:00,
2013-06-20 15:43:00,94.9,71.5,29.94,SSE,163,0.0,4.0,47,0.00,,,0.00,WeatherCatV1.15B25,2013-06-20 20:43:00,
2013-06-20 15:48:00,94.7,71.3,29.94,SSE,161,2.0,4.0,47,0.00,,,0.00,WeatherCatV1.15B25,2013-06-20 20:48:00,
2013-06-20 15:53:00,94.6,71.2,29.94,ENE,60,1.0,2.0,47,0.00,,,0.00,WeatherCatV1.15B25,2013-06-20 20:53:00,
2013-06-20 15:58:00,94.7,71.3,29.93,SSE,159,2.0,5.0,47,0.00,,,0.00,WeatherCatV1.15B25,2013-06-20 20:58:00,
2013-06-20 16:03:00,95.1,71.0,29.93,ESE,102,0.0,4.0,46,0.00,,,0.00,WeatherCatV1.15B25,2013-06-20 21:03:00,
2013-06-20 16:08:00,95.3,71.8,29.93,South,175,4.0,5.0,47,0.00,,,0.00,WeatherCatV1.15B25,2013-06-20 21:08:00,
2013-06-20 16:13:00,94.9,70.2,29.93,NNW,327,1.0,4.0,45,0.00,,,0.00,WeatherCatV1.15B25,2013-06-20 21:13:00,
2013-06-20 16:18:00,94.7,71.3,29.93,ENE,78,0.0,1.0,47,0.00,,,0.00,WeatherCatV1.15B25,2013-06-20 21:18:00,
2013-06-20 16:23:00,95.4,71.9,29.92,South,173,2.0,4.0,47,0.00,,,0.00,WeatherCatV1.15B25,2013-06-20 21:23:00,
2013-06-20 16:28:00,95.6,70.8,29.92,ENE,78,2.0,3.0,45,0.00,,,0.00,WeatherCatV1.15B25,2013-06-20 21:28:00,
2013-06-20 16:33:00,95.1,70.4,29.92,SSW,208,0.0,4.0,45,0.00,,,0.00,WeatherCatV1.15B25,2013-06-20 21:33:00,
2013-06-20 16:38:00,95.3,71.2,29.92,SSW,206,1.0,2.0,46,0.00,,,0.00,WeatherCatV1.15B25,2013-06-20 21:38:00,
2013-06-20 16:43:00,95.5,71.4,29.92,South,191,1.0,4.0,46,0.00,,,0.00,WeatherCatV1.15B25,2013-06-20 21:43:00,
2013-06-20 16:48:00,95.2,70.5,29.92,East,97,1.0,1.0,45,0.00,,,0.00,WeatherCatV1.15B25,2013-06-20 21:48:00,
2013-06-20 16:53:00,95.1,71.0,29.92,SE,146,1.0,4.0,46,0.00,,,0.00,WeatherCatV1.15B25,2013-06-20 21:53:00,
2013-06-20 16:59:00,95.4,71.9,29.91,WSW,244,1.0,4.0,47,0.00,,,0.00,WeatherCatV1.15B25,2013-06-20 21:59:00,
2013-06-20 17:04:00,95.6,70.2,29.92,South,173,0.0,4.0,44,0.00,,,0.00,WeatherCatV1.15B25,2013-06-20 22:04:00,
2013-06-20 17:09:00,95.8,70.3,29.91,SW,215,1.0,4.0,44,0.00,,,0.00,WeatherCatV1.15B25,2013-06-20 22:09:00,
2013-06-20 17:14:00,95.7,69.6,29.91,South,182,1.0,2.0,43,0.00,,,0.00,WeatherCatV1.15B25,2013-06-20 22:14:00,
2013-06-20 17:19:00,95.8,70.3,29.91,SE,135,0.0,1.0,44,0.00,,,0.00,WeatherCatV1.15B25,2013-06-20 22:19:00,
2013-06-20 17:24:00,95.9,69.1,29.91,SW,218,1.0,4.0,42,0.00,,,0.00,WeatherCatV1.15B25,2013-06-20 22:24:00,
2013-06-20 17:29:00,95.8,68.3,29.91,SSW,203,1.0,4.0,41,0.00,,,0.00,WeatherCatV1.15B25,2013-06-20 22:29:00,
2013-06-20 17:34:00,95.5,68.0,29.91,SE,131,1.0,4.0,41,0.00,,,0.00,WeatherCatV1.15B25,2013-06-20 22:34:00,
2013-06-20 17:39:00,95.3,68.5,29.91,SE,139,2.0,5.0,42,0.00,,,0.00,WeatherCatV1.15B25,2013-06-20 22:39:00,
2013-06-20 17:44:00,94.9,68.8,29.91,SSW,200,0.0,3.0,43,0.00,,,0.00,WeatherCatV1.15B25,2013-06-20 22:44:00,
2013-06-20 17:49:00,94.9,68.2,29.91,SSE,148,2.0,4.0,42,0.00,,,0.00,WeatherCatV1.15B25,2013-06-20 22:49:00,
2013-06-20 17:54:00,95.0,68.3,29.90,SE,136,0.0,0.0,42,0.00,,,0.00,WeatherCatV1.15B25,2013-06-20 22:54:00,
2013-06-20 17:59:00,94.8,68.1,29.90,SSE,155,0.0,1.0,42,0.00,,,0.00,WeatherCatV1.15B25,2013-06-20 22:59:00,
2013-06-20 18:04:00,94.9,68.2,29.90,SE,139,0.0,6.0,42,0.00,,,0.00,WeatherCatV1.15B25,2013-06-20 23:04:00,
2013-06-20 18:09:00,94.8,67.4,29.90,SSW,210,2.0,2.0,41,0.00,,,0.00,WeatherCatV1.15B25,2013-06-20 23:09:00,
2013-06-20 18:14:00,94.7,67.3,29.90,East,90,4.0,7.0,41,0.00,,,0.00,WeatherCatV1.15B25,2013-06-20 23:14:00,
2013-06-20 18:19:00,94.6,67.2,29.90,SSW,200,1.0,2.0,41,0.00,,,0.00,WeatherCatV1.15B25,2013-06-20 23:19:00,
2013-06-20 18:24:00,94.5,67.8,29.90,SSE,151,0.0,4.0,42,0.00,,,0.00,WeatherCatV1.15B25,2013-06-20 23:24:00,
2013-06-20 18:29:00,94.4,66.3,29.90,SSE,153,1.0,8.0,40,0.00,,,0.00,WeatherCatV1.15B25,2013-06-20 23:29:00,
2013-06-20 18:34:00,94.3,66.9,29.90,South,171,0.0,2.0,41,0.00,,,0.00,WeatherCatV1.15B25,2013-06-20 23:34:00,
2013-06-20 18:39:00,94.1,68.1,29.90,ENE,57,1.0,2.0,43,0.00,,,0.00,WeatherCatV1.15B25,2013-06-20 23:39:00,
2013-06-20 18:44:00,94.0,68.0,29.90,South,188,2.0,2.0,43,0.00,,,0.00,WeatherCatV1.15B25,2013-06-20 23:44:00,
2013-06-20 18:49:00,93.6,67.0,29.90,SW,223,0.0,4.0,42,0.00,,,0.00,WeatherCatV1.15B25,2013-06-20 23:49:00,
2013-06-20 18:54:00,93.3,66.7,29.91,South,169,0.0,2.0,42,0.00,,,0.00,WeatherCatV1.15B25,2013-06-20 23:54:00,
2013-06-20 18:59:00,93.2,65.9,29.90,SE,144,1.0,5.0,41,0.00,,,0.00,WeatherCatV1.15B25,2013-06-20 23:59:00,
2013-06-20 19:04:00,92.9,65.7,29.90,East,97,1.0,6.0,41,0.00,,,0.00,WeatherCatV1.15B25,2013-06-21 00:04:00,
2013-06-20 19:09:00,92.6,66.1,29.90,SSE,163,0.0,5.0,42,0.00,,,0.00,WeatherCatV1.15B25,2013-06-21 00:09:00,
2013-06-20 19:14:00,92.4,66.6,29.91,West,266,0.0,1.0,43,0.00,,,0.00,WeatherCatV1.15B25,2013-06-21 00:14:00,
2013-06-20 19:19:00,92.2,66.4,29.91,WSW,251,1.0,4.0,43,0.00,,,0.00,WeatherCatV1.15B25,2013-06-21 00:19:00,
2013-06-20 19:24:00,92.0,66.9,29.91,NNE,13,1.0,3.0,44,0.00,,,0.00,WeatherCatV1.15B25,2013-06-21 00:24:00,
2013-06-20 19:30:00,91.8,66.7,29.91,East,98,0.0,4.0,44,0.00,,,0.00,WeatherCatV1.15B25,2013-06-21 00:30:00,
2013-06-20 19:35:00,91.6,66.6,29.91,SSE,150,6.0,6.0,44,0.00,,,0.00,WeatherCatV1.15B25,2013-06-21 00:35:00,
2013-06-20 19:40:00,91.3,66.3,29.91,SSE,163,1.0,4.0,44,0.00,,,0.00,WeatherCatV1.15B25,2013-06-21 00:40:00,
2013-06-20 19:45:00,91.3,66.3,29.91,SSE,150,0.0,0.0,44,0.00,,,0.00,WeatherCatV1.15B25,2013-06-21 00:45:00,
2013-06-20 19:50:00,91.1,66.8,29.91,North,11,1.0,4.0,45,0.00,,,0.00,WeatherCatV1.15B25,2013-06-21 00:50:00,
2013-06-20 19:55:00,90.8,67.7,29.91,South,182,0.0,1.0,47,0.00,,,0.00,WeatherCatV1.15B25,2013-06-21 00:55:00,
2013-06-20 20:00:00,90.4,68.0,29.91,ESE,113,4.0,5.0,48,0.00,,,0.00,WeatherCatV1.15B25,2013-06-21 01:00:00,
2013-06-20 20:05:00,90.0,68.2,29.91,East,101,1.0,4.0,49,0.00,,,0.00,WeatherCatV1.15B25,2013-06-21 01:05:00,
2013-06-20 20:10:00,89.8,68.6,29.91,East,90,1.0,7.0,50,0.00,,,0.00,WeatherCatV1.15B25,2013-06-21 01:10:00,
2013-06-20 20:15:00,89.5,68.4,29.91,SE,136,1.0,7.0,50,0.00,,,0.00,WeatherCatV1.15B25,2013-06-21 01:15:00,
2013-06-20 20:20:00,89.2,68.7,29.92,SSE,161,0.0,1.0,51,0.00,,,0.00,WeatherCatV1.15B25,2013-06-21 01:20:00,
2013-06-20 20:25:00,89.0,68.5,29.92,East,82,0.0,8.0,51,0.00,,,0.00,WeatherCatV1.15B25,2013-06-21 01:25:00,
2013-06-20 20:30:00,88.8,68.9,29.92,SE,130,0.0,6.0,52,0.00,,,0.00,WeatherCatV1.15B25,2013-06-21 01:30:00,
2013-06-20 20:35:00,88.5,68.6,29.92,NE,47,2.0,6.0,52,0.00,,,0.00,WeatherCatV1.15B25,2013-06-21 01:35:00,
2013-06-20 20:40:00,88.2,68.9,29.92,SSW,194,0.0,7.0,53,0.00,,,0.00,WeatherCatV1.15B25,2013-06-21 01:40:00,
2013-06-20 20:45:00,87.9,69.1,29.92,ESE,105,4.0,5.0,54,0.00,,,0.00,WeatherCatV1.15B25,2013-06-21 01:45:00,
2013-06-20 20:50:00,87.6,69.4,29.92,SE,142,0.0,6.0,55,0.00,,,0.00,WeatherCatV1.15B25,2013-06-21 01:50:00,
2013-06-20 20:55:00,87.3,70.2,29.92,ESE,123,6.0,7.0,57,0.00,,,0.00,WeatherCatV1.15B25,2013-06-21 01:55:00,
2013-06-20 21:00:00,87.0,70.4,29.92,South,171,7.0,7.0,58,0.00,,,0.00,WeatherCatV1.15B25,2013-06-21 02:00:00,
2013-06-20 21:05:00,86.8,70.7,29.92,SE,146,2.0,8.0,59,0.00,,,0.00,WeatherCatV1.15B25,2013-06-21 02:05:00,
2013-06-20 21:10:00,86.5,71.4,29.92,SE,136,2.0,9.0,61,0.00,,,0.00,WeatherCatV1.15B25,2013-06-21 02:10:00,
2013-06-20 21:15:00,86.2,71.6,29.92,ESE,105,1.0,8.0,62,0.00,,,0.00,WeatherCatV1.15B25,2013-06-21 02:15:00,
2013-06-20 21:20:00,86.1,72.0,29.92,ESE,120,1.0,5.0,63,0.00,,,0.00,WeatherCatV1.15B25,2013-06-21 02:20:00,
2013-06-20 21:25:00,85.8,72.2,29.92,SE,130,1.0,5.0,64,0.00,,,0.00,WeatherCatV1.15B25,2013-06-21 02:25:00,
2013-06-20 21:30:00,85.5,72.4,29.93,ESE,120,0.0,3.0,65,0.00,,,0.00,WeatherCatV1.15B25,2013-06-21 02:30:00,
2013-06-20 21:35:00,85.3,72.6,29.94,SE,136,1.0,4.0,66,0.00,,,0.00,WeatherCatV1.15B25,2013-06-21 02:35:00,
2013-06-20 21:40:00,85.0,72.8,29.94,SE,130,0.0,4.0,67,0.00,,,0.00,WeatherCatV1.15B25,2013-06-21 02:40:00,
2013-06-20 21:45:00,84.8,73.0,29.94,SSE,153,1.0,9.0,68,0.00,,,0.00,WeatherCatV1.15B25,2013-06-21 02:45:00,
2013-06-20 21:50:00,84.6,73.3,29.95,ESE,119,0.0,2.0,69,0.00,,,0.00,WeatherCatV1.15B25,2013-06-21 02:50:00,
2013-06-20 21:55:00,84.4,73.5,29.95,SSW,195,1.0,2.0,70,0.00,,,0.00,WeatherCatV1.15B25,2013-06-21 02:55:00,
2013-06-20 22:01:00,84.2,73.3,29.95,SE,128,2.0,7.0,70,0.00,,,0.00,WeatherCatV1.15B25,2013-06-21 03:01:00,
2013-06-20 22:06:00,84.1,73.7,29.95,SSE,150,5.0,5.0,71,0.00,,,0.00,WeatherCatV1.15B25,2013-06-21 03:06:00,
2013-06-20 22:11:00,83.8,73.8,29.95,SSE,148,1.0,5.0,72,0.00,,,0.00,WeatherCatV1.15B25,2013-06-21 03:11:00,
2013-06-20 22:16:00,83.6,74.0,29.96,South,170,1.0,5.0,73,0.00,,,0.00,WeatherCatV1.15B25,2013-06-21 03:16:00,
2013-06-20 22:21:00,83.4,73.8,29.96,SSE,168,0.0,2.0,73,0.00,,,0.00,WeatherCatV1.15B25,2013-06-21 03:21:00,
2013-06-20 22:26:00,83.2,74.0,29.96,SSE,161,0.0,5.0,74,0.00,,,0.00,WeatherCatV1.15B25,2013-06-21 03:26:00,
2013-06-20 22:31:00,82.9,73.7,29.97,SSW,203,0.0,4.0,74,0.00,,,0.00,WeatherCatV1.15B25,2013-06-21 03:31:00,
2013-06-20 22:36:00,82.8,74.0,29.97,East,101,1.0,5.0,75,0.00,,,0.00,WeatherCatV1.15B25,2013-06-21 03:36:00,
2013-06-20 22:41:00,82.6,73.8,29.97,SE,130,0.0,5.0,75,0.00,,,0.00,WeatherCatV1.15B25,2013-06-21 03:41:00,
2013-06-20 22:46:00,82.5,74.1,29.98,SE,130,0.0,1.0,76,0.00,,,0.00,WeatherCatV1.15B25,2013-06-21 03:46:00,
2013-06-20 22:51:00,82.3,74.0,29.98,SW,224,0.0,3.0,76,0.00,,,0.00,WeatherCatV1.15B25,2013-06-21 03:51:00,
2013-06-20 22:56:00,82.1,74.2,29.99,East,94,1.0,1.0,77,0.00,,,0.00,WeatherCatV1.15B25,2013-06-21 03:56:00,
2013-06-20 23:01:00,82.0,74.1,29.99,SE,132,0.0,4.0,77,0.00,,,0.00,WeatherCatV1.15B25,2013-06-21 04:01:00,
2013-06-20 23:03:00,81.9,74.0,29.99,SE,134,0.0,1.0,77,0.00,,,0.00,WeatherCatV1.15B25,2013-06-21 04:03:00,
2013-06-20 23:05:00,81.9,74.0,29.99,SE,145,0.0,2.0,77,0.00,,,0.00,WeatherCatV1.15B25,2013-06-21 04:05:00,
2013-06-20 23:08:00,81.8,73.9,30.00,SE,144,0.0,2.0,77,0.00,,,0.00,WeatherCatV1.15B25,2013-06-21 04:08:00,
2013-06-20 23:13:00,81.6,74.1,30.00,SE,142,2.0,2.0,78,0.00,,,0.00,WeatherCatV1.15B25,2013-06-21 04:13:00,
2013-06-20 23:18:00,81.5,74.0,30.00,SSE,163,0.0,4.0,78,0.00,,,0.00,WeatherCatV1.15B25,2013-06-21 04:18:00,
2013-06-20 23:23:00,81.3,74.1,30.00,South,189,0.0,2.0,79,0.00,,,0.00,WeatherCatV1.15B25,2013-06-21 04:23:00,
2013-06-20 23:28:00,81.1,73.9,30.00,SSE,150,0.0,4.0,79,0.00,,,0.00,WeatherCatV1.15B25,2013-06-21 04:28:00,
2013-06-20 23:33:00,81.0,74.2,30.00,SSE,155,1.0,4.0,80,0.00,,,0.00,WeatherCatV1.15B25,2013-06-21 04:33:00,
2013-06-20 23:38:00,81.0,74.2,30.01,SSE,152,1.0,2.0,80,0.00,,,0.00,WeatherCatV1.15B25,2013-06-21 04:38:00,
2013-06-20 23:43:00,80.9,74.1,30.01,ESE,105,0.0,2.0,80,0.00,,,0.00,WeatherCatV1.15B25,2013-06-21 04:43:00,
2013-06-20 23:48:00,80.8,74.4,30.01,SE,143,0.0,2.0,81,0.00,,,0.00,WeatherCatV1.15B25,2013-06-21 04:48:00,
2013-06-20 23:53:00,80.7,74.3,30.02,SSE,148,0.0,4.0,81,0.00,,,0.00,WeatherCatV1.15B25,2013-06-21 04:53:00,
2013-06-20 23:58:00,80.6,74.2,30.02,SSE,157,0.0,1.0,81,0.00,,,0.00,WeatherCatV1.15B25,2013-06-21 04:58:00,